This is the latest recevied weather packets stored in our database for station/object PY3MO-13. If no packets are shown the sender has not sent any weather packets the latest 10 day(s).
| Time | Temp. | Humidity | Pressure | Rain* | Wind** | Luminosity | Snow |
|---|---|---|---|---|---|---|---|
| 1778230206 | 13.33° C | 99% | 1005.2 hPa | 0.76 mm | - | - | - |
| 1778229905 | 13.33° C | 98% | 1005.1 hPa | 0.76 mm | - | - | - |
| 1778229605 | 13.33° C | 97% | 1005.2 hPa | 1.02 mm | - | - | - |
| 1778229306 | 12.78° C | 97% | 1005.1 hPa | 1.02 mm | - | - | - |
| 1778229006 | 12.78° C | 96% | 1004.9 hPa | 0.76 mm | - | - | - |
| 1778228706 | 12.78° C | 96% | 1004.4 hPa | 0.76 mm | - | - | - |
| 1778228405 | 12.78° C | 95% | 1004.7 hPa | 0.51 mm | - | - | - |
| 1778228106 | 12.78° C | 95% | 1004.9 hPa | 0.51 mm | - | - | - |
| 1778227806 | 13.33° C | 96% | 1004.5 hPa | 0.76 mm | - | - | - |
| 1778227506 | 13.89° C | 96% | 1004.5 hPa | 0.76 mm | - | - | - |
| 1778227206 | 13.89° C | 96% | 1004.7 hPa | 1.02 mm | - | - | - |
| 1778226906 | 13.89° C | 96% | 1004.1 hPa | 1.02 mm | - | - | - |
| 1778226605 | 14.44° C | 97% | 1004.2 hPa | 1.27 mm | - | - | - |
| 1778226305 | 14.44° C | 98% | 1004.2 hPa | 1.78 mm | - | - | - |
| 1778226006 | 15° C | 99% | 1004.7 hPa | 1.27 mm | - | - | - |
| 1778225706 | 15.56° C | 99% | 1003.8 hPa | 1.78 mm | - | - | - |
| 1778225406 | 16.11° C | 99% | 1004.2 hPa | 1.78 mm | - | - | - |
| 1778225105 | 16.11° C | 99% | 1004.7 hPa | 1.78 mm | - | - | - |
| 1778224805 | 16.11° C | 99% | 1004.8 hPa | 1.78 mm | - | - | - |
| 1778224506 | 16.11° C | 99% | 1004.6 hPa | 1.27 mm | - | - | - |
| 1778224206 | 16.67° C | 99% | 1004.4 hPa | 1.02 mm | - | - | - |
| 1778223906 | 16.67° C | 98% | 1005.1 hPa | 1.27 mm | - | - | - |
| 1778223605 | 16.67° C | 97% | 1004.5 hPa | 1.02 mm | - | - | - |
| 1778223307 | 16.67° C | 97% | 1004.4 hPa | 1.02 mm | - | - | - |
| 1778223006 | 16.67° C | 96% | 1004.4 hPa | 0.76 mm | - | - | - |
* Rain latest hour (hover to see other rain measurements)
** Current wind speed in m/s (hover to see current wind gust speed)